Showing default

RADUGA 17, 16250

Orbit data source: Space-Track

RADUGA 17, 16250 is a payload satellite owned by GUKOS (CIS) in GEO that was launched on Fri, 15 Nov 1985 UTC via a PROTON-K/DM launch vehicle from the Tyuratam Missile And Space Complex (TTMTR). Payload-class satellites include a variety of spacecraft equipped with specific instruments for various scientific and technological missions. These include communications satellites like Starlink; space stations such as the ISS; scientific satellites like the Hubble; Earth observation satellites from companies like Planet Labs, Umbra, and HawkEye 360; GPS; miniature CubeSats for education and research; and military/defense satellites.

Not visible in the next 10 days
Identifier
16250, 1985-107A
Orbit
GEO
Country
Flag of CISCIS
Related business
Manufacturer
NPO PM
Mission
Non-operational Defense Communications
Bus & Motor
RADUGA, Unknown motor
Mass
1,965 kg wet, ~1,800 kg dry
Launch date (UTC)
1985-11-15 (40 years ago)
Launch vehicle
PROTON-K/DM
Launch site
Tyuratam Missile And Space Complex (TTMTR)
Object type
Payload
Rocket body
Debris
Shape & HBR
Cyl + 2 Pan, 4.8 m
Radar Cross Section
16.975 m², Large (>1 m²)

Expand to show TLE details & history
Last TLE update: 16 hours ago

TLE from 16 hours ago
0 RADUGA 17
1 16250U 85107A   25300.86334236 -.00000059  00000-0  00000-0 0  9995
2 16250  10.0036 319.8174 0014683 232.2034 324.1138  1.00192054149342
Epoch: 2025-10-27T20:43Z
TLE epoch observation values (Epoch: 2025-10-27T20:43:12.779Z)
Latitude
-2.79332°
Longitude
168.51644°
Altitude
35,758.728 km
Speed
3.078 km/s
True Right ascension
10h 23m 06s
True Declination
-2° 47' 26"
Sunlit
Object was in daylight at epoch
Visualization orbit readout
Latitude
Unknown
Longitude
Unknown
Altitude
Unknown
Speed
Unknown
Apparent Right ascension
Unknown
Apparent Declination
Unknown
Sunlit
N/A
Visualization observer readout
Local Sidereal Time
08:23:20
Azimuth
Unknown
Elevation
Unknown
Doppler factor
Unknown
Orbital elements
Apogee altitude
35,871.929 km
Perigee altitude
35,748.039 km
Semi-major axis
42,188.121 km
Eccentricity
0.00147
Inclination
10.0036°
RAAN
319.8174°
Arg. of periapsis
232.2034°
True anomaly
324.01503°
Mean anomaly
324.1138°
Eccentric anomaly
324.06443°
Mean motion
0.25047 °/min
Orbital period
1,437.29 mins
BSTAR
0
Loading maneuver chart data...
Computing Atmospheric mass density...
Loading historical data...
Loading historical data...
Loading historical data...
Loading historical data...
Loading historical data...
Loading historical data...
Loading historical data...

Documentation

Showing up to 5 results
|